TimeEDT,TemperatureF,Dew PointF,Humidity,Sea Level PressureIn,VisibilityMPH,Wind Direction,Wind SpeedMPH,Gust SpeedMPH,PrecipitationIn,Events,Conditions,WindDirDegrees,DateUTC
12:53 AM,57.9,55.0,90,30.19,8.0,Calm,Calm,-,N/A,,Overcast,0,2012-10-25 04:53:00
1:53 AM,57.9,54.0,87,30.19,10.0,Calm,Calm,-,N/A,,Overcast,0,2012-10-25 05:53:00
2:15 AM,57.2,53.6,88,30.19,10.0,Calm,Calm,-,N/A,,Overcast,0,2012-10-25 06:15:00
2:53 AM,57.9,53.1,84,30.20,10.0,Calm,Calm,-,N/A,,Overcast,0,2012-10-25 06:53:00
3:15 AM,57.2,53.6,88,30.19,10.0,Calm,Calm,-,N/A,,Overcast,0,2012-10-25 07:15:00
3:53 AM,57.0,54.0,89,30.18,10.0,NE,3.5,-,0.00,Rain,Light Rain,40,2012-10-25 07:53:00
4:20 AM,57.2,53.6,88,30.18,10.0,Calm,Calm,-,0.00,,Overcast,0,2012-10-25 08:20:00
4:53 AM,57.0,53.1,87,30.19,10.0,Calm,Calm,-,0.00,Rain,Light Rain,0,2012-10-25 08:53:00
5:33 AM,57.2,53.6,88,30.20,10.0,Calm,Calm,-,0.00,,Overcast,0,2012-10-25 09:33:00
5:53 AM,57.0,54.0,89,30.21,10.0,Calm,Calm,-,0.00,,Overcast,0,2012-10-25 09:53:00
6:53 AM,57.0,53.1,87,30.23,10.0,Calm,Calm,-,N/A,,Overcast,0,2012-10-25 10:53:00
7:53 AM,57.0,53.1,87,30.24,10.0,NE,3.5,51.8,N/A,,Overcast,50,2012-10-25 11:53:00
8:37 AM,57.2,53.6,88,30.23,10.0,Calm,Calm,-,N/A,,Overcast,0,2012-10-25 12:37:00
8:53 AM,57.9,53.1,84,30.24,10.0,Calm,Calm,-,N/A,,Overcast,0,2012-10-25 12:53:00
9:53 AM,59.0,54.0,83,30.25,10.0,Calm,Calm,-,N/A,,Overcast,0,2012-10-25 13:53:00
10:17 AM,59.0,53.6,82,30.25,10.0,Calm,Calm,-,N/A,,Overcast,0,2012-10-25 14:17:00
10:53 AM,59.0,55.0,87,30.26,8.0,Variable,3.5,-,N/A,,Overcast,0,2012-10-25 14:53:00
11:53 AM,60.1,55.0,83,30.25,10.0,SSE,4.6,-,N/A,,Overcast,150,2012-10-25 15:53:00
12:23 PM,60.8,55.4,82,30.25,10.0,SSE,3.5,-,N/A,,Overcast,150,2012-10-25 16:23:00
12:53 PM,61.0,55.0,81,30.25,10.0,Calm,Calm,-,N/A,,Overcast,0,2012-10-25 16:53:00
1:53 PM,61.0,55.0,81,30.23,10.0,Calm,Calm,-,N/A,,Overcast,0,2012-10-25 17:53:00
2:53 PM,62.1,55.0,78,30.23,10.0,Calm,Calm,-,N/A,,Overcast,0,2012-10-25 18:53:00
3:53 PM,62.1,55.0,78,30.23,10.0,Calm,Calm,-,N/A,,Overcast,0,2012-10-25 19:53:00
4:53 PM,60.1,55.9,86,30.22,9.0,Variable,5.8,-,N/A,,Overcast,0,2012-10-25 20:53:00
5:53 PM,60.1,55.9,86,30.23,9.0,Calm,Calm,-,N/A,,Overcast,0,2012-10-25 21:53:00
6:53 PM,59.0,55.9,90,30.24,10.0,Calm,Calm,-,N/A,,Overcast,0,2012-10-25 22:53:00
7:53 PM,59.0,55.9,90,30.25,10.0,Calm,Calm,-,N/A,,Overcast,0,2012-10-25 23:53:00
8:53 PM,57.9,55.9,93,30.24,7.0,Calm,Calm,-,N/A,,Overcast,0,2012-10-26 00:53:00
9:53 PM,57.9,55.9,93,30.24,4.0,Calm,Calm,-,N/A,,Overcast,0,2012-10-26 01:53:00
10:53 PM,57.9,57.0,97,30.23,7.0,Calm,Calm,-,0.01,,Overcast,0,2012-10-26 02:53:00
11:53 PM,57.9,55.9,93,30.22,7.0,Calm,Calm,-,N/A,,Overcast,0,2012-10-26 03:53:00